Flag Weather past 2 weeks in Oklahoma City, Oklahoma, U.S.A.

Now
43 °F

Partly cloudy.


Feels Like: 37 °F
Forecast: 36 / 56 °F
Wind: 10 mph from South

Location: Will Rogers World Airport

Current Time: Nov 26, 2014 at 1:01:56 AM

Latest Report: Nov 25, 2014 at 11:52 PM


Visibility: 10 mi

Pressure: 29.99 "Hg

Humidity: 51%

Dew point: 26 °F

Location of Oklahoma CityLocation

Historic Weather in Oklahoma City — Graph

°F

Oklahoma City temperature yesterday

Maximum temperature yesterday: 54 °F (at 2:52 PM)
Minimum temperature yesterday: 32 °F (at 6:52 AM)
Average temperature yesterday: 43 °F

Past Weeks' High & Low Weather Summary

 TemperatureHumidityPressure
High66 °F (Nov 21, 1:52 PM)93% (Nov 22, 2:52 AM)30.66 "Hg (Nov 22, 2:52 AM)
Low17 °F (Nov 17, 6:52 AM)18% (Nov 24, 1:52 PM)29.31 "Hg (Nov 23, 12:52 PM)
Average40 °F57%30.15 "Hg
* Reported Nov 10 11:04 PM — Nov 25 11:52 PM, Oklahoma City, Weather by CustomWeather, © 2014

Note: Actual official high and low records may vary slightly from our data, if they occured in-between our weather recording intervals... More about our weather records

Advertising

Oklahoma City weather history for previous 24 hours

 ConditionsComfort  
Time TempWeatherWind HumidityBarometerVisibility
11:52 PM
Nov 25
43 °FPartly cloudy.10 mph51%29.99 "Hg10 mi
10:52 PM41 °FPartly cloudy.7 mph58%30.01 "Hg10 mi
9:52 PM42 °FPartly cloudy.8 mph55%30.04 "Hg10 mi
8:52 PM45 °FOvercast.9 mph51%30.07 "Hg10 mi
7:52 PM46 °FOvercast.6 mph50%30.09 "Hg10 mi
6:52 PM45 °FMostly cloudy.7 mph51%30.09 "Hg10 mi
5:52 PM43 °FPartly cloudy.5 mph51%30.11 "Hg10 mi
4:52 PM49 °FScattered clouds.8 mph39%30.11 "Hg10 mi
3:52 PM54 °FPassing clouds.9 mph34%30.13 "Hg10 mi
2:52 PM54 °FPassing clouds.12 mph33%30.14 "Hg10 mi
1:52 PM53 °FPassing clouds.12 mph32%30.17 "Hg10 mi
12:52 PM52 °FSunny.5 mph32%30.20 "Hg10 mi
11:52 AM51 °FSunny.12 mph32%30.25 "Hg10 mi
10:52 AM48 °FSunny.6 mph37%30.29 "Hg10 mi
9:52 AM42 °FPassing clouds.No wind51%30.31 "Hg10 mi
8:52 AM37 °FPassing clouds.8 mph65%30.31 "Hg10 mi
7:52 AM32 °FScattered clouds.9 mph73%30.30 "Hg10 mi
6:52 AM32 °FPassing clouds.9 mph73%30.27 "Hg10 mi
5:52 AM33 °FPassing clouds.8 mph72%30.25 "Hg10 mi
4:52 AM36 °FPassing clouds.No wind64%30.22 "Hg10 mi
3:52 AM38 °FPartly cloudy.No wind60%30.21 "Hg10 mi
2:52 AM36 °FPassing clouds.3 mph62%30.20 "Hg10 mi
1:52 AM36 °FPartly cloudy.6 mph62%30.19 "Hg10 mi
Weather by CustomWeather, © 2014

See weather overviewHow to use our weather pages